Location: Claremont
(33.9858°S, 18.4575°E)
Time: 04:07:09
(UTC+00:00)

SL-8 Rocket - Pass Details

Date: 03 March 2021
Orbit: 957 x 990 km, 82.9° (Epoch: 19 April)

Event Time Altitude Azimuth Distance (km) Brightness Sun altitude
Rises 17:41:59 0° 187° (S) 3,735 7.3 -5.4°
Reaches altitude 10° 17:44:31 10° 186° (S) 2,780 6.6 -5.9°
Maximum altitude 17:50:56 88° 273° (W) 1,003 4.1 -7.2°
Drops below altitude 10° 17:57:15 10° 4° (N) 2,741 6.2 -8.5°
Sets 17:59:45 0° 4° (N) 3,678 6.8 -9.0°
